Weather Roundup
Issued by NWS Chicago, IL

Home | Current Version | Previous Version | Graphics & Text | Print | Product List | Glossary On
Versions: 1 2 3 4 5 6 7 8 9 10 11 12 13 14 15 16 17 18 19 20 21 22 23 24 25 26 27 28 29 30 31 32 33 34 35 36 37 38 39 40 41 42 43 44 45 46 47 48 49 50
000
NZUS59 KLOT 301521
HRRLOT

CHICAGO AREA WEATHER ROUNDUP
NATIONAL WEATHER SERVICE CHICAGO/ROMEOVILLE IL
1000 AM CDT SUN AUG 30 2015

NOTE: "FAIR" INDICATES FEW OR NO CLOUDS BELOW 12,000 FEET WITH NO
SIGNIFICANT WEATHER AND/OR OBSTRUCTIONS TO VISIBILITY.

* THESE STATIONS ARE NOT UNDER NWS QUALITY CONTROL. THEY ALSO MAY NOT
  REPORT WEATHER SUCH AS PRECIPITATION OR FOG.

ILZ005-006-012>014-019>023-301600-
NORTHEAST ILLINOIS

CITY           SKY/WX    TMP DP  RH WIND       PRES   REMARKS
OHARE          CLOUDY    69  64  84 NE7       30.08R HAZE
MIDWAY         CLOUDY    70  63  78 CALM      30.08R
AURORA         CLOUDY    69  64  84 N6        30.09S
LANSING*       CLOUDY    69  64  85 E6        30.09R HAZE
JOLIET*        CLOUDY    71  65  84 NE3       30.09R
WAUKEGAN       CLOUDY    66  64  93 NE5       30.08S FOG
DUPAGE AIRPORT CLOUDY    69  62  78 N5        30.08S
WHEELING       CLOUDY    67  63  87 NE5       30.10R
KANKAKEE*      CLOUDY    69  67  96 NE5       30.09R FOG
MORRIS*        CLOUDY    68  65  89 E5        30.08R
LEWIS AIRPORT* CLOUDY    68  64  86 NE3       30.09R FOG
NORTHERLY IS     N/A     66  64  93 MISG        N/A
$$

WIZ051-052-058>065-066-070>072-301600-
SOUTHEAST WISCONSIN

CITY           SKY/WX    TMP DP  RH WIND       PRES   REMARKS
MILWAUKEE      CLOUDY    65  63  93 N3        30.09R FOG
KENOSHA*       CLOUDY    66  63  90 N3        30.10R FOG
RACINE*        CLOUDY    68  63  84 N5        30.11R
BURLINGTON     CLOUDY    65  61  85 CALM      30.10R
WAUKESHA       CLOUDY    64  61  88 CALM      30.10S FOG
WEST BEND      CLOUDY    63  63 100 CALM      30.09S
$$

INZ001>003-010>013-019-020-301600-
NORTHWEST INDIANA

CITY           SKY/WX    TMP DP  RH WIND       PRES   REMARKS
GARY*          CLOUDY    70  64  83 CALM      30.09S FOG
MICHIGAN CITY* NOT AVBL
RENSSELAER*    NOT AVBL
VALPARAISO     CLOUDY    72  67  84 CALM      30.09R
$$

LMZ740>746-301600-
SOUTHERN LAKE MICHIGAN

STATION/POSITION TIME  SKY/WX   TEMP WIND        PRES    VSBY
                                AIR  DIR/SP/G
                 (UTC)          (F)  (DEG/KT/KT) (MB)    (MI)
HARRISON CRIB    1400            63  330/  6/  7   N/A
BURNHAM HARBOR   1500            66   20/  6/  7   N/A
CALUMET HARBOR   NOT AVBL
BURNS HARBOR     1400            68  320/  3/  4 1019.0R
MICHIGAN CITY    1400            71  280/  2/  3   N/A
$$

ABBREVIATIONS USED IN REMARKS
   TC - TEMPERATURE IN CELSIUS
  WCI - WIND CHILL INDEX
   HX - HEAT INDEX
  VSB - VISIBILITY
$$



USA.gov is the U.S. government's official web portal to all federal, state and local government web resources and services.